COSMOS 2064

Satellite information

Favourite Embed

Satellite Type and Status

PAYLOADIN ORBIT

Key statistics

Satellite COSMOS 2064 at a glance.

Uptime

13036

Days in orbit

Revolutions

≈ 12.5

Per day

Orbit

LEO

Low Earth Orbit

Inclination

74.0

Latest

Satellite identification and parameters

Extended collection of information and parameters for COSMOS 2064.

Object identification

Identified? True

Debris? False

Object name: COSMOS 2064

International designator: 1990-029A

Object number (NORAD): 20549

Object ID (CCSDS): 20549

Country: COMMONWEALTH OF INDEPENDENT STATES (CIS)

Current information (Y/N): Y

RCS size: MEDIUM

Orbital parameters

Period: 115.457 minutes

Inclination: 73.982 deg

SMA: 7854.272 km

Apoapsis: 1490.07 km

Periapsis: 1462.204 km

RAAN: 251.8903 deg

Eccentricy: 0.001774

Argument of periapsis: 292.1429 deg

Mean anomaly: 237.9449 deg

Mean motion: 12.47222268 rev/day

Mean motion (dot): -0.00000008 rev/day2

B* drag term: 0.00005603417 1/REarth

Two-line elements (TLE)

Creation date: Dec. 12, 2025, 10:14 a.m.

Reference frame: TEME

Reference center: EARTH

Epoch: Dec. 12, 2025, 5:49 a.m. UTC

TLE line 0: 0 COSMOS 2064

TLE line 1: 1 20549U 90029A 25346.24249010 -.00000008 00000-0 56034-4 0 9993

TLE line 2: 2 20549 73.9820 251.8903 0017740 292.1429 237.9449 12.47222268624799

Live tracking on map

Real-time ground track for satellite COSMOS 2064.

In-orbit conjunctions

A list of the most updated potential collisions computed for object COSMOS 2064.

Target Orbit TCA Probability of collision Miss distance Type
DELTA 1 DEB SSO 2024-11-03 01:44:05 0.0001139874 355.0 (m) DEBRIS

Associated space launch

Military communications satellites

COSMOS 2064 was lifted into orbit during the mission ‘Kosmos-3M | Strela-1M 345-352’, on board a Kosmos-3M space rocket.

The launch took place on April 6, 1990, 3:13 a.m. from 133/3 (133L).

For more information about the launch, click the button.

Launch to space Kosmos-3M | Strela-1M 345-352
Kosmos-3M | Strela-1M 345-352

Agency: N/A

Status: Launch Successful

Launch date: April 6, 1990, 3:13 a.m. UTC

Rocket: Kosmos-3M

Launch pad: 133/3 (133L)

Location: Plesetsk Cosmodrome, Russian Federation

...

Latest news about this satellite

There are no fresh news available about this satellite. Check back as we update our databases every day.


Newsletter sign-up

Weekly statistics, charts and insights to help you stay on top of the space industry.